Find Starlink 31834

NORAD ID: 59721 Int'l Des: 2024-088 Owner: SPXS Country: US Constellation: starlink operational
LEOCIRCULAR

現在のビュー

3D地球を読み込み中...

About Starlink 31834

Starlink 31834 (NORAD 59721) is a starlink constellation satellite (v2 mini) launched May 10, 2024 by SPXS of US. It operates in LEO, CIRCULAR orbit with a mass of 730.00 kg.

Starlink 31834について

説明を読み込み中...

次回通過

Passes for default location (London). Set your location on the main map for personalized predictions.

高度履歴

Loading altitude history...

軌道要素

1 59721U 24088P 26169.93634188 -.00001839 00000-0 -47491-4 0 9994
2 59721 53.1622 29.6171 0001437 109.1720 250.9437 15.31711400119369
Epoch: Jun 18, 2026 • Age: 18 hours

現在のステータス

高度 490.2 km
速度 7.62 km/s
衛星直下点 -53.31°S, 134.81°E
打ち上げ日 May 10, 2024
運用期間 2.1 years
タイプ internet

技術仕様

分類 Payload
質量 730.00 kg
乾燥質量 700.00 kg
総質量 730.00 kg
長さ 0.30 m
直径 4.10 m
スパン 29.00 m
形状 Box + pan
製造者 SPXS
バスタイプ Starlink V2M
フェーズステータス In Orbit
所有者/国 SPXS/US

Most Searched